Regional Weather Roundup
Issued by NWS Huntsville, AL

Home | Current Version | Previous Version | Text Only | Print | Product List | Glossary On
Versions: 1 2 3 4 5 6 7 8 9 10 11 12 13 14 15 16 17 18 19 20 21 22 23 24 25 26 27 28 29 30 31 32 33 34 35 36 37 38 39 40 41 42 43 44 45 46 47 48 49 50
000
ASUS44 KHUN 022210
RWRHUN

WEATHER ROUNDUP FOR THE TENNESSEE VALLEY
NATIONAL WEATHER SERVICE HUNTSVILLE AL
500 PM CDT THU JUL 02 2015

ALZ001>004-022300-
NORTHWEST ALABAMA

CITY           SKY/WX    TMP DP  RH WIND       PRES   REMARKS
COURTLAND HCN    N/A     82 N/A N/A W17         N/A
SHOALS AIRPORT PTSUNNY   84  69  60 SW10      29.91F
SHOALS TVA RES   N/A     81 N/A N/A MISG        N/A
$$

ALZ005>007-016-022300-
NORTH CENTRAL ALABAMA

CITY           SKY/WX    TMP DP  RH WIND       PRES   REMARKS
CULLMAN AG STN   N/A     82 N/A N/A W16         N/A
DECATUR AP     MOSUNNY   86  67  52 W17G23    29.92F
HUNTSVILLE AP  PTSUNNY   87  67  51 SW10      29.92F HX  90
HUN NWS/UAH      N/A     85  63  48 W7          N/A
MERIDIANVILLE  MOSUNNY   81  63  54 SW17G23   29.93S
REDSTONE ARSN  MOSUNNY   84  68  58 SW10      29.92S
VINEMONT AP    FAIR      80  68  66 SW6       29.98S
$$

ALZ008>010-022300-
NORTHEAST ALABAMA

CITY           SKY/WX    TMP DP  RH WIND       PRES   REMARKS
ALBERTVILLE    PTSUNNY   82  72  69 W18G26    29.95F
FORT PAYNE     MOSUNNY   82  63  51 W16G22    29.93S
SCOTTSBORO AP  MOSUNNY   84  70  61 SW14      29.93S
SCOTTSBORO HCN   N/A     82 N/A N/A MISG        N/A
VALLEY HEAD      N/A     81 N/A N/A MISG        N/A
$$

TNZ076-096-097-022300-
SOUTHEASTERN MIDDLE TENNESSEE

CITY           SKY/WX    TMP DP  RH WIND       PRES   REMARKS
TULLAHOMA      PTSUNNY   75  72  88 SW9       29.94S
WINCHESTER     CLOUDY    81  70  69 VRB7      29.92S
$$

...SURROUNDING SITES...

CITY           SKY/WX    TMP DP  RH WIND       PRES   REMARKS
ATLANTA        PTSUNNY   86  67  52 W17       29.98S
ANNISTON       PTSUNNY   84  68  58 SW13      29.97F
BIRMINGHAM     CLOUDY    85  66  53 SW14      29.99S
CHATTANOOGA    PTSUNNY   76  70  82 S3        29.93F
CORINTH        PTSUNNY   84  70  61 SW12G22   29.89F
DALTON         PTSUNNY   73  70  88 CALM      29.95S
GADSDEN        PTSUNNY   91  64  40 SW10      29.94S HX  93
GOLDEN TRNGL   MOSUNNY   82  72  69 SW9       29.95F
HALEYVILLE     FAIR      82  72  72 SW13G22   29.98F
JACKSON TN     PTSUNNY   83  70  64 SW14      29.86F
MEMPHIS        CLOUDY    87  70  56 SW14G20   29.87F HX  92
NASHVILLE      CLOUDY    79  74  84 S12       29.86F
ROME           PTSUNNY   80  71  74 CALM      29.93F
SAVANNAH       PTSUNNY   82  32  16 SW8       29.90S
TUPELO         CLOUDY    84  70  62 W14G20    29.92F
TUSCALOOSA     CLOUDY    88  70  55 SW12G18   29.97S HX  93
$$

...GULF COAST WEATHER...

CITY           SKY/WX    TMP DP  RH WIND       PRES   REMARKS
GULFPORT       PTSUNNY   86  77  74 VRB7      30.04S HX  97
PASCAGOULA     MOSUNNY   86  76  71 SW12G20   30.05R HX  96
MOBILE         PTSUNNY   87  75  67 SW10G18   30.05S HX  96
GULF SHORES    PTCLDY    85  74  68 SW12      30.05S HX  92
PENSACOLA      CLOUDY    86  70  58 SW15      30.04S HX  90
DESTIN         CLOUDY    85  72  65 VRB5      30.05S HX  91
PANAMA CITY    CLOUDY    85  71  64 W7        30.06F HX  90
APPALACHICOLA  CLOUDY    84  75  74 SE3       30.07F HX  92
$$



USA.gov is the U.S. government's official web portal to all federal, state and local government web resources and services.